Hutchinson, MN

9:28 PM CST on December 15, 2017 (GMT -0600)
Hutchinson Municipal-Butler

Weather History for KHCD - February, 2013

Change the Weather History Date:

Wednesday, February 13, 2013

  Actual Average Record
Temperature  
Mean Temperature 25 °F -  
Max Temperature 36 °F 27 °F 96 °F (2005)
Min Temperature 14 °F 7 °F -18 °F (1970)
Degree Days  
Heating Degree Days 40    
Moisture  
Dew Point 25 °F    
Average Humidity 92    
Maximum Humidity 100    
Minimum Humidity 80    
Precipitation  
Precipitation 0.08 in - - ()
Sea Level Pressure  
Sea Level Pressure 29.66 in    
Wind  
Wind Speed 6 mph (WSW)    
Max Wind Speed 13 mph    
Max Gust Speed 18 mph    
Visibility 10 miles    
Events      
Averages and records for this station are not official NWS values.
T = Trace of Precipitation, MM = Missing Value Source: NWS Daily Summary

Daily Weather History Graph

Daily Weather History Graph

Search for Another Location

Airport or City:

Trip Planner

Search our weather history database for the weather conditions in past years. The results will help you decide how hot, cold, wet, or windy it might be!

Date:

Astronomy

Feb. 13, 2013 Rise Set
Actual Time 7:20 AM CST 5:43 PM CST
Civil Twilight 6:50 AM CST 6:13 PM CST
Nautical Twilight 6:16 AM CST 6:47 PM CST
Astronomical Twilight 5:42 AM CST 7:21 PM CST
Moon 8:38 AM CST (2/13) 10:00 PM CST (2/13)
Length of Visible Light 11h 23m
Length of Day
10h 22m
Waxing Crescent, 14% of the Moon is Illuminated
Feb 13
Waxing Crescent
Feb 17
First Quarter
Feb 25
Full
Mar 4
Last Quarter
Mar 11
New

Hourly Weather History & Observations

Time (CST) Temp. Windchill Dew Point Humidity Pressure Visibility Wind Dir Wind Speed Gust Speed Precip Events Conditions
12:08 AM 19.2 °F 8.4 °F 17.2 °F 92% 29.79 in 10.0 mi West 9.2 mph - N/A   Scattered Clouds
12:28 AM 19.2 °F 9.3 °F 17.1 °F 91% 29.79 in 10.0 mi West 8.1 mph - N/A   Mostly Cloudy
12:49 AM 19.2 °F 9.3 °F 17.4 °F 93% 29.78 in 10.0 mi West 8.1 mph - N/A   Overcast
1:08 AM 19.2 °F 8.4 °F 17.2 °F 92% 29.78 in 10.0 mi West 9.2 mph - N/A   Scattered Clouds
1:28 AM 18.0 °F 6.9 °F 16.0 °F 92% 29.78 in 10.0 mi West 9.2 mph - N/A   Clear
1:47 AM 17.4 °F 7.1 °F 15.6 °F 93% 29.78 in 10.0 mi West 8.1 mph - N/A   Clear
1:57 AM 16.7 °F 7.2 °F 14.9 °F 93% 29.77 in 10.0 mi West 6.9 mph - N/A   Clear
2:25 AM 15.8 °F 7.2 °F 14.0 °F 93% 29.78 in 10.0 mi West 5.8 mph - N/A   Clear
2:50 AM 14.0 °F 5.1 °F 12.2 °F 93% 29.77 in 10.0 mi West 5.8 mph - N/A   Clear
3:05 AM 14.0 °F 5.1 °F 12.2 °F 93% 29.77 in 10.0 mi WSW 5.8 mph - N/A   Clear
3:25 AM 14.0 °F 3.9 °F 14.0 °F 100% 29.76 in 10.0 mi West 6.9 mph - N/A   Clear
3:34 AM 14.0 °F 5.1 °F 13.1 °F 96% 29.76 in 10.0 mi West 5.8 mph - N/A   Clear
3:48 AM 14.0 °F 6.5 °F 13.3 °F 97% 29.76 in 10.0 mi West 4.6 mph - N/A   Scattered Clouds
4:08 AM 14.0 °F 5.1 °F 13.1 °F 96% 29.76 in 10.0 mi WNW 5.8 mph - N/A   Mostly Cloudy
4:28 AM 15.3 °F 4.4 °F 14.4 °F 96% 29.76 in 10.0 mi West 8.1 mph - N/A   Mostly Cloudy
4:48 AM 15.8 °F 6.1 °F 14.7 °F 95% 29.75 in 10.0 mi West 6.9 mph - N/A   Overcast
5:08 AM 17.1 °F 11.7 °F 16.0 °F 96% 29.73 in 10.0 mi WSW 3.5 mph - N/A   Overcast
5:28 AM 19.2 °F 11.3 °F 18.1 °F 96% 29.74 in 10.0 mi WSW 5.8 mph - N/A   Overcast
5:48 AM 19.2 °F 12.5 °F 18.0 °F 95% 29.72 in 10.0 mi WSW 4.6 mph - N/A   Overcast
6:08 AM 19.4 °F 14.3 °F 18.1 °F 95% 29.72 in 10.0 mi West 3.5 mph - N/A   Overcast
6:28 AM 20.3 °F - 19.2 °F 96% 29.71 in 10.0 mi Calm Calm - N/A   Overcast
6:48 AM 20.3 °F 15.4 °F 19.0 °F 95% 29.71 in 10.0 mi WSW 3.5 mph - N/A   Overcast
7:09 AM 21.7 °F - 20.3 °F 94% 29.71 in 10.0 mi Calm Calm - N/A   Overcast
7:28 AM 21.7 °F - 20.3 °F 94% 29.70 in 10.0 mi Calm Calm - N/A   Overcast
7:48 AM 21.7 °F - 20.3 °F 94% 29.71 in 10.0 mi Calm Calm - N/A   Overcast
8:01 AM 21.9 °F - 20.3 °F 93% 29.70 in 10.0 mi Calm Calm - N/A   Overcast
8:25 AM 21.2 °F 16.4 °F 19.4 °F 93% 29.70 in 10.0 mi South 3.5 mph - N/A   Scattered Clouds
8:45 AM 21.2 °F 16.4 °F 19.4 °F 93% 29.70 in 10.0 mi SSW 3.5 mph - N/A   Clear
8:52 AM 21.9 °F 17.2 °F 20.1 °F 93% 29.70 in 10.0 mi SSW 3.5 mph - N/A   Clear
9:08 AM 24.3 °F 19.9 °F 21.7 °F 90% 29.70 in - SSW 3.5 mph - N/A   Unknown
9:28 AM 26.6 °F 21.2 °F 23.7 °F 89% 29.70 in - SSW 4.6 mph - N/A   Unknown
9:49 AM 29.3 °F - 25.7 °F 86% 29.69 in - Calm Calm - N/A   Unknown
10:08 AM 29.3 °F - 25.3 °F 85% 29.69 in - Calm Calm - N/A   Unknown
10:28 AM 29.3 °F 23.2 °F 25.5 °F 86% 29.69 in - West 5.8 mph - N/A   Unknown
10:48 AM 29.3 °F 25.6 °F 25.0 °F 84% 29.69 in - WSW 3.5 mph - N/A   Unknown
11:08 AM 31.8 °F 28.5 °F 26.6 °F 81% 29.69 in - South 3.5 mph - N/A   Clear
11:28 AM 31.8 °F 28.5 °F 26.8 °F 82% 29.68 in - SSW 3.5 mph - N/A   Scattered Clouds
11:47 AM 32.0 °F - 27.3 °F 83% 29.67 in - Calm Calm - 0.02 in   Mostly Cloudy
12:09 PM 34.0 °F 31.0 °F 29.5 °F 84% 29.66 in - SSW 3.5 mph - N/A   Overcast
12:28 PM 34.0 °F 28.8 °F 28.9 °F 82% 29.66 in - SW 5.8 mph - 0.02 in   Mostly Cloudy
12:37 PM 34.0 °F 28.8 °F 28.6 °F 81% 29.66 in - SW 5.8 mph - 0.02 in   Scattered Clouds
1:08 PM 34.3 °F 29.2 °F 29.1 °F 81% 29.64 in - SW 5.8 mph - N/A   Mostly Cloudy
1:28 PM 35.2 °F 28.8 °F 29.5 °F 80% 29.64 in - SSW 8.1 mph - 0.02 in   Mostly Cloudy
1:48 PM 35.2 °F 30.3 °F 30.2 °F 82% 29.63 in - SSW 5.8 mph - 0.03 in   Mostly Cloudy
2:08 PM 35.2 °F 30.3 °F 30.2 °F 82% 29.63 in - SSW 5.8 mph - N/A   Overcast
2:28 PM 36.1 °F 31.4 °F 31.1 °F 82% 29.62 in - SSW 5.8 mph - N/A   Overcast
2:48 PM 36.5 °F 31.0 °F 31.5 °F 82% 29.62 in - SSW 6.9 mph - 0.01 in   Overcast
3:08 PM 36.5 °F 32.7 °F 32.0 °F 84% 29.62 in - SSW 4.6 mph - N/A   Overcast
3:28 PM 36.5 °F - 31.6 °F 83% 29.61 in - Calm Calm - N/A   Overcast
3:48 PM 36.5 °F 33.9 °F 31.3 °F 81% 29.61 in - SE 3.5 mph - N/A   Overcast
4:07 PM 36.5 °F - 32.0 °F 84% 29.60 in - Calm Calm - N/A   Overcast
4:28 PM 36.5 °F - 32.4 °F 85% 29.60 in - Calm Calm - N/A   Unknown
4:48 PM 36.5 °F - 32.9 °F 87% 29.59 in - Calm Calm - N/A   Overcast
5:08 PM 35.2 °F - 32.4 °F 89% 29.59 in - Calm Calm - N/A   Overcast
5:28 PM 34.0 °F - 32.0 °F 92% 29.59 in - Calm Calm - N/A   Overcast
5:48 PM 34.0 °F 31.0 °F 32.9 °F 96% 29.59 in - South 3.5 mph - N/A   Unknown
6:08 PM 34.0 °F 28.0 °F 32.4 °F 94% 29.58 in - South 6.9 mph - N/A   Unknown
6:28 PM 34.0 °F 29.8 °F 32.9 °F 96% 29.57 in - SSW 4.6 mph - N/A   Unknown
6:48 PM 34.0 °F 31.0 °F 33.3 °F 97% 29.57 in - SSW 3.5 mph - N/A   Overcast
7:08 PM 34.0 °F - 33.8 °F 99% 29.57 in - Calm Calm - N/A   Overcast
7:28 PM 34.0 °F - 34.0 °F 100% 29.56 in - Calm Calm - N/A   Overcast
7:48 PM 34.0 °F - 34.0 °F 100% 29.56 in - Calm Calm - N/A   Overcast
8:09 PM 34.0 °F 31.0 °F 34.2 °F 100% 29.55 in - SW 3.5 mph - N/A   Overcast
8:28 PM 34.0 °F 31.0 °F 34.2 °F 100% 29.55 in - WSW 3.5 mph - N/A   Overcast
8:48 PM 34.0 °F 28.0 °F 34.2 °F 100% 29.55 in - WSW 6.9 mph - N/A   Overcast
9:08 PM 34.0 °F 27.2 °F 34.2 °F 100% 29.55 in - West 8.1 mph - N/A   Overcast
9:28 PM 34.0 °F 26.6 °F 34.0 °F 100% 29.55 in - West 9.2 mph - N/A   Unknown
9:48 PM 34.0 °F 26.6 °F 34.0 °F 100% 29.55 in - West 9.2 mph - N/A   Overcast
10:08 PM 34.0 °F 26.6 °F 34.0 °F 100% 29.55 in - WNW 9.2 mph - N/A   Overcast
10:12 PM 34.0 °F 26.0 °F 34.0 °F 100% 29.55 in - WNW 10.4 mph - N/A   Overcast
10:45 PM 33.8 °F 26.4 °F 33.8 °F 100% 29.56 in - NW 9.2 mph - N/A   Overcast
11:05 PM 33.8 °F 24.8 °F 33.8 °F 100% 29.57 in - NW 12.7 mph - N/A   Overcast
11:25 PM 33.8 °F 25.3 °F 33.8 °F 100% 29.57 in - NNW 11.5 mph - N/A   Overcast
11:50 PM 33.8 °F 24.8 °F 33.8 °F 100% 29.59 in - NNW 12.7 mph 18.4 mph N/A   Overcast